Regional Weather Roundup
Issued by NWS Jackson, KY

Home | Current Version | Previous Version | Graphics & Text | Print | Product List | Glossary On
Versions: 1 2 3 4 5 6 7 8 9 10 11 12 13 14 15 16 17 18 19 20 21 22 23 24 25 26 27 28 29 30 31 32 33 34 35 36 37 38 39 40 41 42 43 44 45 46 47 48 49 50
072
ASUS43 KJKL 101110
RWRJKL

EAST KENTUCKY HOURLY WEATHER ROUNDUP
NATIONAL WEATHER SERVICE JACKSON KY
600 AM EST WED FEB 10 2016

NOTE: "FAIR" INDICATES FEW OR NO CLOUDS BELOW 12,000 FEET WITH
NO SIGNIFICANT WEATHER AND/OR OBSTRUCTIONS TO VISIBILITY.

* THESE REPORTS ARE NOT UNDER NWS QUALITY CONTROL AND MAY NOT
  REPORT WEATHER SUCH AS PRECIPITATION AND FOG.

KYZ079-080-083-085-087-088-110-112-115-119-120-101200
...EASTERN KENTUCKY...

CITY           SKY/WX    TMP DP  RH WIND       PRES   REMARKS
JACKSON        CLOUDY    16  10  77 VRB5      29.94R WCI   9
LONDON         CLOUDY    15   7  70 W7        29.99R WCI   5
SOMERSET*      CLOUDY    18  12  79 W8        30.04S WCI   7
MONTICELLO*    LGT SNOW  18  13  80 W16       30.05R WCI   3
WILLIAMSBURG*  CLOUDY    16  14  93 CALM      30.01R
MIDDLESBORO*   FLURRIES  18  10  70 W5        30.01R WCI  11
HARLAN APT*    CLOUDY    18  12  79 SW6       29.95R WCI   9
HAZARD APT*    LGT SNOW N/A N/A N/A W6        29.96R
BLACK MTN*       N/A      5   5 100 W3          N/A
BIG SANDY*     CLOUDY    18  10  70 W8        29.93S WCI   8
MOREHEAD APT*  LGT SNOW  18  10  73 SW6       29.97R WCI   9
$$

KYZ035-036-041-042-044-050-067-078-099-101200
...CENTRAL KENTUCKY...

CITY           SKY/WX    TMP DP  RH WIND       PRES   REMARKS
MT STERLING*   FLURRIES  18  14  86 W10       29.98R WCI   6
DANVILLE*      LGT SNOW  18  14  86 W5        30.01R WCI  11
RICHMOND*      CLOUDY    16  10  79 SW9       29.99R WCI   4
LEXINGTON      CLOUDY    16  11  80 W12       29.98R WCI   3
FRANKFORT      CLOUDY    17   8  67 VRB7      29.99R WCI   8
$$

KYZ091>093-OHZ055-061-077-WVZ005-015-034-035-042-101200
...SOUTHERN OHIO/WEST VIRGINIA...

CITY           SKY/WX    TMP DP  RH WIND       PRES   REMARKS
COVINGTON      LGT SNOW  15  10  80 W9        29.95R WCI   3
COLUMBUS       LGT SNOW  15   8  73 W12       29.87R WCI   2
DAYTON         LGT SNOW  15  11  83 W16       29.88S FOG     WCI  -1
WILMINGTON     LGT SNOW  13   9  84 W13       29.89R FOG     WCI  -2
HUNTINGTON     LGT SNOW  18  13  80 W8        29.94R WCI   8
CHARLESTON     FLURRIES  21  10  62 W14G21    29.90R WCI   8
PINEVILLE*     LGT SNOW  19  13  77 MISG      29.90R
BECKLEY        LGT SNOW  16  11  80 W9        29.77R WCI   4
$$

VAZ002-007-008-TNZ017-027-036-066-071-101200
...SOUTHWEST VIRGINIA/EAST TENNESSEE...

CITY           SKY/WX    TMP DP  RH WIND       PRES   REMARKS
BRISTOL        CLOUDY    19  10  68 W13       29.93R WCI   6
KNOXVILLE      LGT SNOW  20  10  65 W17       30.04R WCI   5
OAK RIDGE      CLOUDY    20  10  65 W7        30.06R WCI  11
CROSSVILLE     CLOUDY    15   8  73 NW12G21   29.99R WCI   2
NASHVILLE      LGT SNOW  21  15  78 NW10      30.12R WCI  10
$$

...KEY TO REMARKS...
VSB - VISIBILITY IN MILES
WCI - WIND CHILL INDEX
HX  - HEAT INDEX

$$




USA.gov is the U.S. government's official web portal to all federal, state and local government web resources and services.